Year,Month,Day,Hour,Minute,Value (Times are PST for windspeed in km/hr)
2013,07,27,00,00,14.50
2013,07,27,00,01,12.90
2013,07,27,00,02,15.00
2013,07,27,00,03,5.10
2013,07,27,00,04,12.50
2013,07,27,00,05,9.50
2013,07,27,00,06,8.20
2013,07,27,00,07,7.50
2013,07,27,00,08,9.40
2013,07,27,00,09,8.20
2013,07,27,00,10,7.80
2013,07,27,00,11,9.10
2013,07,27,00,12,7.60
2013,07,27,00,13,10.90
2013,07,27,00,14,5.60
2013,07,27,00,15,9.50
2013,07,27,00,16,6.70
2013,07,27,00,17,11.50
2013,07,27,00,18,8.80
2013,07,27,00,19,5.20
2013,07,27,00,20,6.80
2013,07,27,00,21,7.30
2013,07,27,00,22,8.10
2013,07,27,00,23,8.80
2013,07,27,00,24,13.30
2013,07,27,00,25,11.50
2013,07,27,00,26,7.90
2013,07,27,00,27,9.20
2013,07,27,00,28,8.70
2013,07,27,00,29,16.30
2013,07,27,00,30,10.30
2013,07,27,00,31,10.90
2013,07,27,00,32,7.40
2013,07,27,00,33,10.60
2013,07,27,00,34,3.30
2013,07,27,00,35,5.70
2013,07,27,00,36,5.60
2013,07,27,00,37,6.10
2013,07,27,00,38,5.10
2013,07,27,00,39,9.00
2013,07,27,00,40,7.50
2013,07,27,00,41,7.20
2013,07,27,00,42,8.10
2013,07,27,00,43,5.90
2013,07,27,00,44,9.70
2013,07,27,00,45,5.50
2013,07,27,00,46,4.30
2013,07,27,00,47,5.30
2013,07,27,00,48,5.00
2013,07,27,00,49,5.90
2013,07,27,00,50,3.90
2013,07,27,00,51,6.40
2013,07,27,00,52,4.10
2013,07,27,00,53,5.10
2013,07,27,00,54,7.40
2013,07,27,00,55,7.00
2013,07,27,00,56,6.80
2013,07,27,00,57,4.70
2013,07,27,00,58,5.80
2013,07,27,00,59,7.10
2013,07,27,01,00,5.40
2013,07,27,01,01,2.40
2013,07,27,01,02,3.40
2013,07,27,01,03,8.90
2013,07,27,01,04,6.10
2013,07,27,01,05,2.80
2013,07,27,01,06,3.70
2013,07,27,01,07,2.90
2013,07,27,01,08,4.30
2013,07,27,01,09,6.00
2013,07,27,01,10,6.80
2013,07,27,01,11,7.40
2013,07,27,01,12,7.40
2013,07,27,01,13,6.20
2013,07,27,01,14,5.40
2013,07,27,01,15,6.50
2013,07,27,01,16,6.80
2013,07,27,01,17,6.80
2013,07,27,01,18,9.00
2013,07,27,01,19,5.70
2013,07,27,01,20,5.50
2013,07,27,01,21,5.60
2013,07,27,01,22,5.90
2013,07,27,01,23,5.40
2013,07,27,01,24,9.50
2013,07,27,01,25,6.70
2013,07,27,01,26,5.20
2013,07,27,01,27,5.10
2013,07,27,01,28,3.40
2013,07,27,01,29,8.50
2013,07,27,01,30,10.20
2013,07,27,01,31,12.20
2013,07,27,01,32,4.50
2013,07,27,01,33,7.00
2013,07,27,01,34,6.80
2013,07,27,01,35,7.50
2013,07,27,01,36,4.80
2013,07,27,01,37,1.80
2013,07,27,01,38,4.00
2013,07,27,01,39,6.40
2013,07,27,01,40,5.50
2013,07,27,01,41,4.00
2013,07,27,01,42,1.70
2013,07,27,01,43,3.60
2013,07,27,01,44,4.40
2013,07,27,01,45,9.10
2013,07,27,01,46,9.10
2013,07,27,01,47,3.40
2013,07,27,01,48,3.00
2013,07,27,01,49,4.10
2013,07,27,01,50,1.40
2013,07,27,01,51,2.30
2013,07,27,01,52,4.10
2013,07,27,01,53,2.50
2013,07,27,01,54,3.70
2013,07,27,01,55,2.30
2013,07,27,01,56,1.80
2013,07,27,01,57,1.00
2013,07,27,01,58,2.20
2013,07,27,01,59,2.20
2013,07,27,02,00,0.70
2013,07,27,02,01,1.50
2013,07,27,02,02,0.30
2013,07,27,02,03,1.80
2013,07,27,02,04,1.00
2013,07,27,02,05,2.70
2013,07,27,02,06,2.80
2013,07,27,02,07,4.20
2013,07,27,02,08,7.10
2013,07,27,02,09,5.50
2013,07,27,02,10,7.30
2013,07,27,02,11,3.40
2013,07,27,02,12,4.10
2013,07,27,02,13,4.20
2013,07,27,02,14,2.70
2013,07,27,02,15,1.90
2013,07,27,02,16,0.70
2013,07,27,02,17,1.80
2013,07,27,02,18,2.70
2013,07,27,02,19,1.50
2013,07,27,02,20,1.00
2013,07,27,02,21,2.40
2013,07,27,02,22,6.40
2013,07,27,02,23,5.00
2013,07,27,02,24,1.60
2013,07,27,02,25,1.50
2013,07,27,02,26,2.80
2013,07,27,02,27,5.50
2013,07,27,02,28,3.60
2013,07,27,02,29,1.80
2013,07,27,02,30,3.30
2013,07,27,02,31,2.90
2013,07,27,02,32,3.10
2013,07,27,02,33,2.10
2013,07,27,02,34,6.10
2013,07,27,02,35,3.10
2013,07,27,02,36,3.10
2013,07,27,02,37,5.60
2013,07,27,02,38,5.20
2013,07,27,02,39,3.60
2013,07,27,02,40,6.40
2013,07,27,02,41,4.90
2013,07,27,02,42,2.00
2013,07,27,02,43,6.70
2013,07,27,02,44,5.70
2013,07,27,02,45,5.10
2013,07,27,02,46,6.70
2013,07,27,02,47,4.60
2013,07,27,02,48,5.40
2013,07,27,02,49,8.50
2013,07,27,02,50,6.60
2013,07,27,02,51,10.10
2013,07,27,02,52,3.10
2013,07,27,02,53,5.10
2013,07,27,02,54,3.10
2013,07,27,02,55,3.80
2013,07,27,02,56,4.40
2013,07,27,02,57,7.60
2013,07,27,02,58,5.40
2013,07,27,02,59,10.50
2013,07,27,03,00,8.70
2013,07,27,03,01,5.60
2013,07,27,03,02,6.90
2013,07,27,03,03,7.20
2013,07,27,03,04,15.40
2013,07,27,03,05,8.80
2013,07,27,03,06,6.20
2013,07,27,03,07,10.20
2013,07,27,03,08,9.00
2013,07,27,03,09,12.50
2013,07,27,03,10,8.10
2013,07,27,03,11,13.10
2013,07,27,03,12,7.20
2013,07,27,03,13,8.70
2013,07,27,03,14,12.30
2013,07,27,03,15,13.30
2013,07,27,03,16,6.10
2013,07,27,03,17,8.00
2013,07,27,03,18,6.30
2013,07,27,03,19,7.80
2013,07,27,03,20,7.20
2013,07,27,03,21,4.60
2013,07,27,03,22,5.50
2013,07,27,03,23,5.20
2013,07,27,03,24,4.20
2013,07,27,03,25,4.10
2013,07,27,03,26,5.30
2013,07,27,03,27,3.00
2013,07,27,03,28,1.30
2013,07,27,03,29,6.40
2013,07,27,03,30,2.80
2013,07,27,03,31,1.10
2013,07,27,03,32,2.90
2013,07,27,03,33,2.00
2013,07,27,03,34,4.00
2013,07,27,03,35,4.30
2013,07,27,03,36,4.30
2013,07,27,03,37,8.30
2013,07,27,03,38,3.20
2013,07,27,03,39,8.80
2013,07,27,03,40,10.40
2013,07,27,03,41,6.10
2013,07,27,03,42,7.40
2013,07,27,03,43,5.60
2013,07,27,03,44,12.30
2013,07,27,03,45,7.50
2013,07,27,03,46,4.70
2013,07,27,03,47,5.50
2013,07,27,03,48,10.20
2013,07,27,03,49,6.80
2013,07,27,03,50,6.30
2013,07,27,03,51,7.90
2013,07,27,03,52,8.80
2013,07,27,03,53,5.70
2013,07,27,03,54,6.00
2013,07,27,03,55,5.70
2013,07,27,03,56,5.30
2013,07,27,03,57,5.30
2013,07,27,03,58,8.10
2013,07,27,03,59,7.80
2013,07,27,04,00,6.70
2013,07,27,04,01,4.80
2013,07,27,04,02,4.50
2013,07,27,04,03,6.60
2013,07,27,04,04,7.20
2013,07,27,04,05,3.10
2013,07,27,04,06,2.60
2013,07,27,04,07,2.30
2013,07,27,04,08,4.00
2013,07,27,04,09,4.10
2013,07,27,04,10,5.10
2013,07,27,04,11,2.80
2013,07,27,04,12,3.20
2013,07,27,04,13,4.20
2013,07,27,04,14,10.20
2013,07,27,04,15,8.10
2013,07,27,04,16,10.80
2013,07,27,04,17,7.10
2013,07,27,04,18,8.40
2013,07,27,04,19,12.30
2013,07,27,04,20,7.50
2013,07,27,04,21,7.20
2013,07,27,04,22,7.20
2013,07,27,04,23,8.50
2013,07,27,04,24,7.90
2013,07,27,04,25,7.30
2013,07,27,04,26,9.30
2013,07,27,04,27,8.80
2013,07,27,04,28,5.50
2013,07,27,04,29,9.90
2013,07,27,04,30,6.80
2013,07,27,04,31,7.10
2013,07,27,04,32,11.10
2013,07,27,04,33,8.00
2013,07,27,04,34,6.70
2013,07,27,04,35,9.40
2013,07,27,04,36,9.80
2013,07,27,04,37,12.90
2013,07,27,04,38,6.40
2013,07,27,04,39,7.30
2013,07,27,04,40,9.10
2013,07,27,04,41,9.90
2013,07,27,04,42,12.20
2013,07,27,04,43,8.10
2013,07,27,04,44,10.30
2013,07,27,04,45,6.70
2013,07,27,04,46,7.90
2013,07,27,04,47,10.60
2013,07,27,04,48,15.40
2013,07,27,04,49,10.50
2013,07,27,04,50,14.70
2013,07,27,04,51,15.80
2013,07,27,04,52,10.80
2013,07,27,04,53,13.30
2013,07,27,04,54,8.40
2013,07,27,04,55,12.50
2013,07,27,04,56,9.60
2013,07,27,04,57,9.50
2013,07,27,04,58,9.80
2013,07,27,04,59,11.10
2013,07,27,05,00,10.70
2013,07,27,05,01,6.80
2013,07,27,05,02,6.80
2013,07,27,05,03,9.90
2013,07,27,05,04,8.10
2013,07,27,05,05,7.80
2013,07,27,05,06,7.80
2013,07,27,05,07,7.20
2013,07,27,05,08,6.70
2013,07,27,05,09,5.00
2013,07,27,05,10,6.70
2013,07,27,05,11,2.40
2013,07,27,05,12,1.30
2013,07,27,05,13,8.30
2013,07,27,05,14,5.90
2013,07,27,05,15,7.20
2013,07,27,05,16,6.70
2013,07,27,05,17,7.80
2013,07,27,05,18,4.70
2013,07,27,05,19,4.50
2013,07,27,05,20,2.60
2013,07,27,05,21,8.30
2013,07,27,05,22,5.80
2013,07,27,05,23,12.90
2013,07,27,05,24,10.40
2013,07,27,05,25,6.40
2013,07,27,05,26,5.40
2013,07,27,05,27,5.40
2013,07,27,05,28,4.00
2013,07,27,05,29,4.60
2013,07,27,05,30,5.90
2013,07,27,05,31,10.10
2013,07,27,05,32,6.20
2013,07,27,05,33,4.70
2013,07,27,05,34,5.70
2013,07,27,05,35,3.40
2013,07,27,05,36,4.40
2013,07,27,05,37,5.50
2013,07,27,05,38,6.10
2013,07,27,05,39,8.30
2013,07,27,05,40,7.70
2013,07,27,05,41,6.00
2013,07,27,05,42,6.30
2013,07,27,05,43,3.70
2013,07,27,05,44,7.00
2013,07,27,05,45,7.20
2013,07,27,05,46,5.60
2013,07,27,05,47,3.90
2013,07,27,05,48,5.20
2013,07,27,05,49,4.80
2013,07,27,05,50,7.70
2013,07,27,05,51,9.80
2013,07,27,05,52,11.10
2013,07,27,05,53,7.50
2013,07,27,05,54,7.70
2013,07,27,05,55,8.40
2013,07,27,05,56,7.10
2013,07,27,05,57,7.30
2013,07,27,05,58,5.40
2013,07,27,05,59,7.90
2013,07,27,06,00,7.50
2013,07,27,06,01,7.80
2013,07,27,06,02,7.10
2013,07,27,06,03,9.10
2013,07,27,06,04,6.60
2013,07,27,06,05,7.30
2013,07,27,06,06,10.90
2013,07,27,06,07,10.90
2013,07,27,06,08,7.60
2013,07,27,06,09,6.20
2013,07,27,06,10,10.30
2013,07,27,06,11,9.30
2013,07,27,06,12,5.90
2013,07,27,06,13,7.00
2013,07,27,06,14,8.40
2013,07,27,06,15,13.30
2013,07,27,06,16,7.90
2013,07,27,06,17,6.90
2013,07,27,06,18,9.30
2013,07,27,06,19,9.50
2013,07,27,06,20,4.60
2013,07,27,06,21,2.90
2013,07,27,06,22,2.90
2013,07,27,06,23,4.80
2013,07,27,06,24,3.90
2013,07,27,06,25,1.70
2013,07,27,06,26,1.80
2013,07,27,06,27,7.20
2013,07,27,06,28,5.40
2013,07,27,06,29,5.40
2013,07,27,06,30,4.00
2013,07,27,06,31,4.60
2013,07,27,06,32,4.80
2013,07,27,06,33,5.90
2013,07,27,06,34,8.00
2013,07,27,06,35,5.60
2013,07,27,06,36,7.90
2013,07,27,06,37,8.50
2013,07,27,06,38,7.40
2013,07,27,06,39,8.30
2013,07,27,06,40,9.90
2013,07,27,06,41,6.50
2013,07,27,06,42,6.50
2013,07,27,06,43,4.40
2013,07,27,06,44,4.50
2013,07,27,06,45,10.00
2013,07,27,06,46,8.70
2013,07,27,06,47,3.90
2013,07,27,06,48,3.70
2013,07,27,06,49,2.80
2013,07,27,06,50,3.50
2013,07,27,06,51,2.30
2013,07,27,06,52,3.00
2013,07,27,06,53,6.20
2013,07,27,06,54,4.40
2013,07,27,06,55,4.10
2013,07,27,06,56,6.00
2013,07,27,06,57,4.10
2013,07,27,06,58,3.00
2013,07,27,06,59,4.70
2013,07,27,07,00,4.00
2013,07,27,07,01,4.20
2013,07,27,07,02,5.70
2013,07,27,07,03,7.60
2013,07,27,07,04,12.00
2013,07,27,07,05,6.70
2013,07,27,07,06,8.60
2013,07,27,07,07,13.60
2013,07,27,07,08,10.70
2013,07,27,07,09,8.00
2013,07,27,07,10,13.30
2013,07,27,07,11,16.50
2013,07,27,07,12,12.00
2013,07,27,07,13,10.80
2013,07,27,07,14,11.60
2013,07,27,07,15,11.50
2013,07,27,07,16,9.70
2013,07,27,07,17,9.60
2013,07,27,07,18,17.80
2013,07,27,07,19,12.80
2013,07,27,07,20,10.10
2013,07,27,07,21,14.20
2013,07,27,07,22,9.30
2013,07,27,07,23,8.70
2013,07,27,07,24,10.80
2013,07,27,07,25,12.80
2013,07,27,07,26,11.60
2013,07,27,07,27,11.40
2013,07,27,07,28,10.20
2013,07,27,07,29,8.70
2013,07,27,07,30,7.80
2013,07,27,07,31,8.70
2013,07,27,07,32,6.20
2013,07,27,07,33,17.00
2013,07,27,07,34,6.60
2013,07,27,07,35,6.30
2013,07,27,07,36,8.20
2013,07,27,07,37,12.90
2013,07,27,07,38,10.20
2013,07,27,07,39,13.20
2013,07,27,07,40,14.80
2013,07,27,07,41,13.10
2013,07,27,07,42,18.60
2013,07,27,07,43,12.00
2013,07,27,07,44,9.00
2013,07,27,07,45,14.60
2013,07,27,07,46,20.90
2013,07,27,07,47,14.80
2013,07,27,07,48,13.20
2013,07,27,07,49,14.40
2013,07,27,07,50,6.90
2013,07,27,07,51,10.10
2013,07,27,07,52,10.90
2013,07,27,07,53,12.30
2013,07,27,07,54,12.80
2013,07,27,07,55,13.40
2013,07,27,07,56,12.20
2013,07,27,07,57,10.60
2013,07,27,07,58,15.40
2013,07,27,07,59,11.10
2013,07,27,08,00,9.40
2013,07,27,08,01,11.40
2013,07,27,08,02,7.90
2013,07,27,08,03,7.40
2013,07,27,08,04,8.70
2013,07,27,08,05,18.50
2013,07,27,08,06,14.40
2013,07,27,08,07,15.50
2013,07,27,08,08,12.60
2013,07,27,08,09,12.20
2013,07,27,08,10,10.90
2013,07,27,08,11,16.90
2013,07,27,08,12,9.30
2013,07,27,08,13,8.20
2013,07,27,08,14,9.40
2013,07,27,08,15,5.50
2013,07,27,08,16,8.40
2013,07,27,08,17,8.20
2013,07,27,08,18,11.20
2013,07,27,08,19,12.20
2013,07,27,08,20,12.50
2013,07,27,08,21,16.00
2013,07,27,08,22,12.00
2013,07,27,08,23,12.10
2013,07,27,08,24,10.80
2013,07,27,08,25,6.40
2013,07,27,08,26,10.00
2013,07,27,08,27,8.60
2013,07,27,08,28,11.20
2013,07,27,08,29,13.90
2013,07,27,08,30,9.30
2013,07,27,08,31,8.90
2013,07,27,08,32,12.80
2013,07,27,08,33,21.90
2013,07,27,08,34,13.00
2013,07,27,08,35,15.30
2013,07,27,08,36,18.00
2013,07,27,08,37,16.30
2013,07,27,08,38,17.20
2013,07,27,08,39,14.70
2013,07,27,08,40,20.60
2013,07,27,08,41,18.00
2013,07,27,08,42,16.40
2013,07,27,08,43,12.90
2013,07,27,08,44,16.40
2013,07,27,08,45,10.60
2013,07,27,08,46,11.10
2013,07,27,08,47,13.60
2013,07,27,08,48,14.50
2013,07,27,08,49,16.90
2013,07,27,08,50,11.20
2013,07,27,08,51,13.20
2013,07,27,08,52,14.30
2013,07,27,08,53,13.30
2013,07,27,08,54,13.20
2013,07,27,08,55,13.00
2013,07,27,08,56,14.30
2013,07,27,08,57,10.60
2013,07,27,08,58,15.20
2013,07,27,08,59,12.10
2013,07,27,09,00,8.80
2013,07,27,09,01,16.70
2013,07,27,09,02,12.80
2013,07,27,09,03,14.30
2013,07,27,09,04,11.50
2013,07,27,09,05,18.60
2013,07,27,09,06,12.70
2013,07,27,09,07,11.40
2013,07,27,09,08,15.90
2013,07,27,09,09,15.60
2013,07,27,09,10,13.60
2013,07,27,09,11,14.70
2013,07,27,09,12,16.10
2013,07,27,09,13,15.30
2013,07,27,09,14,15.30
2013,07,27,09,15,10.40
2013,07,27,09,16,10.70
2013,07,27,09,17,16.20
2013,07,27,09,18,15.60
2013,07,27,09,19,8.80
2013,07,27,09,20,11.90
2013,07,27,09,21,12.50
2013,07,27,09,22,12.20
2013,07,27,09,23,11.60
2013,07,27,09,24,12.20
2013,07,27,09,25,14.60
2013,07,27,09,26,9.00
2013,07,27,09,27,9.70
2013,07,27,09,28,9.80
2013,07,27,09,29,6.60
2013,07,27,09,30,15.90
2013,07,27,09,31,13.20
2013,07,27,09,32,15.80
2013,07,27,09,33,11.70
2013,07,27,09,34,15.30
2013,07,27,09,35,16.60
2013,07,27,09,36,16.40
2013,07,27,09,37,13.70
2013,07,27,09,38,13.80
2013,07,27,09,39,14.90
2013,07,27,09,40,14.90
2013,07,27,09,41,17.30
2013,07,27,09,42,14.90
2013,07,27,09,43,14.90
2013,07,27,09,44,21.20
2013,07,27,09,45,19.60
2013,07,27,09,46,14.90
2013,07,27,09,47,14.50
2013,07,27,09,48,13.70
2013,07,27,09,49,10.50
2013,07,27,09,50,14.90
2013,07,27,09,51,17.10
2013,07,27,09,52,13.90
2013,07,27,09,53,9.10
2013,07,27,09,54,13.00
2013,07,27,09,55,16.00
2013,07,27,09,56,14.00
2013,07,27,09,57,13.60
2013,07,27,09,58,19.30
2013,07,27,09,59,15.50
2013,07,27,10,00,15.10
2013,07,27,10,01,10.90
2013,07,27,10,02,15.60
2013,07,27,10,03,14.90
2013,07,27,10,04,11.00
2013,07,27,10,05,10.00
2013,07,27,10,06,10.60
2013,07,27,10,07,13.10
2013,07,27,10,08,8.30
2013,07,27,10,09,7.60
2013,07,27,10,10,10.40
2013,07,27,10,11,13.80
2013,07,27,10,12,11.20
2013,07,27,10,13,14.40
2013,07,27,10,14,17.40
2013,07,27,10,15,12.50
2013,07,27,10,16,16.80
2013,07,27,10,17,15.00
2013,07,27,10,18,8.20
2013,07,27,10,19,14.50
2013,07,27,10,20,14.00
2013,07,27,10,21,11.70
2013,07,27,10,22,13.70
2013,07,27,10,23,15.60
2013,07,27,10,24,17.40
2013,07,27,10,25,12.90
2013,07,27,10,26,13.90
2013,07,27,10,27,14.00
2013,07,27,10,28,13.90
2013,07,27,10,29,12.30
2013,07,27,10,30,13.20
2013,07,27,10,31,17.90
2013,07,27,10,32,17.00
2013,07,27,10,33,11.70
2013,07,27,10,34,16.60
2013,07,27,10,35,18.20
2013,07,27,10,36,14.90
2013,07,27,10,37,14.60
2013,07,27,10,38,14.00
2013,07,27,10,39,10.20
2013,07,27,10,40,14.30
2013,07,27,10,41,11.00
2013,07,27,10,42,9.50
2013,07,27,10,43,19.10
2013,07,27,10,44,11.90
2013,07,27,10,45,13.20
2013,07,27,10,46,11.70
2013,07,27,10,47,15.60
2013,07,27,10,48,10.80
2013,07,27,10,49,16.80
2013,07,27,10,50,17.40
2013,07,27,10,51,15.60
2013,07,27,10,52,13.30
2013,07,27,10,53,13.40
2013,07,27,10,54,14.00
2013,07,27,10,55,12.40
2013,07,27,10,56,15.80
2013,07,27,10,57,11.50
2013,07,27,10,58,16.40
2013,07,27,10,59,7.80
2013,07,27,11,00,9.40
2013,07,27,11,01,10.60
2013,07,27,11,02,9.60
2013,07,27,11,03,11.20
2013,07,27,11,04,10.50
2013,07,27,11,05,11.20
2013,07,27,11,06,9.20
2013,07,27,11,07,12.60
2013,07,27,11,08,14.80
2013,07,27,11,09,13.70
2013,07,27,11,10,16.20
2013,07,27,11,11,6.30
2013,07,27,11,12,7.90
2013,07,27,11,13,10.10
2013,07,27,11,14,7.40
2013,07,27,11,15,8.20
2013,07,27,11,16,13.40
2013,07,27,11,17,12.20
2013,07,27,11,18,9.00
2013,07,27,11,19,10.40
2013,07,27,11,20,10.60
2013,07,27,11,21,9.10
2013,07,27,11,22,14.00
2013,07,27,11,23,13.80
2013,07,27,11,24,9.30
2013,07,27,11,25,13.20
2013,07,27,11,26,10.70
2013,07,27,11,27,9.00
2013,07,27,11,28,15.70
2013,07,27,11,29,9.60
2013,07,27,11,30,11.70
2013,07,27,11,31,15.50
2013,07,27,11,32,12.00
2013,07,27,11,33,12.00
2013,07,27,11,34,17.10
2013,07,27,11,35,12.30
2013,07,27,11,36,11.50
2013,07,27,11,37,8.70
2013,07,27,11,38,7.90
2013,07,27,11,39,10.20
2013,07,27,11,40,10.50
2013,07,27,11,41,10.40
2013,07,27,11,42,13.80
2013,07,27,11,43,14.40
2013,07,27,11,44,12.50
2013,07,27,11,45,13.80
2013,07,27,11,46,15.70
2013,07,27,11,47,12.30
2013,07,27,11,48,15.60
2013,07,27,11,49,18.60
2013,07,27,11,50,12.70
2013,07,27,11,51,12.40
2013,07,27,11,52,12.50
2013,07,27,11,53,10.10
2013,07,27,11,54,12.40
2013,07,27,11,55,12.50
2013,07,27,11,56,13.90
2013,07,27,11,57,13.30
2013,07,27,11,58,12.50
2013,07,27,11,59,11.60
2013,07,27,12,00,12.10
2013,07,27,12,01,8.60
2013,07,27,12,02,6.00
2013,07,27,12,03,7.40
2013,07,27,12,04,13.40
2013,07,27,12,05,19.60
2013,07,27,12,06,11.30
2013,07,27,12,07,15.70
2013,07,27,12,08,18.10
2013,07,27,12,09,14.50
2013,07,27,12,10,11.40
2013,07,27,12,11,5.40
2013,07,27,12,12,13.20
2013,07,27,12,13,8.90
2013,07,27,12,14,12.40
2013,07,27,12,15,11.60
2013,07,27,12,16,14.30
2013,07,27,12,17,12.10
2013,07,27,12,18,12.60
2013,07,27,12,19,12.00
2013,07,27,12,20,12.30
2013,07,27,12,21,15.20
2013,07,27,12,22,13.00
2013,07,27,12,23,14.80
2013,07,27,12,24,13.00
2013,07,27,12,25,14.00
2013,07,27,12,26,12.60
2013,07,27,12,27,14.50
2013,07,27,12,28,12.80
2013,07,27,12,29,19.70
2013,07,27,12,30,13.80
2013,07,27,12,31,12.80
2013,07,27,12,32,14.40
2013,07,27,12,33,14.90
2013,07,27,12,34,14.50
2013,07,27,12,35,12.00
2013,07,27,12,36,15.70
2013,07,27,12,37,9.10
2013,07,27,12,38,14.10
2013,07,27,12,39,15.60
2013,07,27,12,40,14.80
2013,07,27,12,41,8.90
2013,07,27,12,42,12.90
2013,07,27,12,43,12.20
2013,07,27,12,44,10.00
2013,07,27,12,45,15.40
2013,07,27,12,46,16.30
2013,07,27,12,47,16.20
2013,07,27,12,48,13.00
2013,07,27,12,49,10.20
2013,07,27,12,50,11.70
2013,07,27,12,51,7.40
2013,07,27,12,52,12.60
2013,07,27,12,53,15.00
2013,07,27,12,54,13.30
2013,07,27,12,55,12.80
2013,07,27,12,56,14.40
2013,07,27,12,57,15.10
2013,07,27,12,58,16.40
2013,07,27,12,59,12.20
2013,07,27,13,00,10.20
2013,07,27,13,01,13.50
2013,07,27,13,02,14.60
2013,07,27,13,03,8.80
2013,07,27,13,04,7.50
2013,07,27,13,05,8.40
2013,07,27,13,06,16.40
2013,07,27,13,07,12.30
2013,07,27,13,08,17.00
2013,07,27,13,09,14.90
2013,07,27,13,10,18.30
2013,07,27,13,11,17.40
2013,07,27,13,12,10.20
2013,07,27,13,13,12.00
2013,07,27,13,14,8.50
2013,07,27,13,15,12.80
2013,07,27,13,16,12.40
2013,07,27,13,17,11.20
2013,07,27,13,18,16.10
2013,07,27,13,19,16.60
2013,07,27,13,20,11.70
2013,07,27,13,21,7.60
2013,07,27,13,22,14.80
2013,07,27,13,23,16.50
2013,07,27,13,24,10.20
2013,07,27,13,25,9.20
2013,07,27,13,26,10.20
2013,07,27,13,27,10.80
2013,07,27,13,28,12.00
2013,07,27,13,29,17.50
2013,07,27,13,30,18.90
2013,07,27,13,31,14.50
2013,07,27,13,32,15.50
2013,07,27,13,33,8.30
2013,07,27,13,34,14.40
2013,07,27,13,35,15.90
2013,07,27,13,36,15.30
2013,07,27,13,37,7.90
2013,07,27,13,38,6.10
2013,07,27,13,39,10.50
2013,07,27,13,40,11.60
2013,07,27,13,41,15.90
2013,07,27,13,42,14.90
2013,07,27,13,43,11.80
2013,07,27,13,44,14.00
2013,07,27,13,45,11.50
2013,07,27,13,46,15.00
2013,07,27,13,47,16.70
2013,07,27,13,48,14.10
2013,07,27,13,49,13.10
2013,07,27,13,50,12.50
2013,07,27,13,51,12.40
2013,07,27,13,52,13.50
2013,07,27,13,53,10.10
2013,07,27,13,54,11.20
2013,07,27,13,55,6.00
2013,07,27,13,56,7.80
2013,07,27,13,57,9.90
2013,07,27,13,58,8.10
2013,07,27,13,59,12.70
2013,07,27,14,00,18.80
2013,07,27,14,01,15.70
2013,07,27,14,02,14.50
2013,07,27,14,03,15.20
2013,07,27,14,04,14.00
2013,07,27,14,05,10.60
2013,07,27,14,06,16.50
2013,07,27,14,07,16.40
2013,07,27,14,08,11.40
2013,07,27,14,09,8.80
2013,07,27,14,10,13.10
2013,07,27,14,11,11.30
2013,07,27,14,12,13.30
2013,07,27,14,13,15.60
2013,07,27,14,14,10.40
2013,07,27,14,15,13.00
2013,07,27,14,16,10.70
2013,07,27,14,17,8.00
2013,07,27,14,18,8.50
2013,07,27,14,19,7.00
2013,07,27,14,20,10.10
2013,07,27,14,21,13.60
2013,07,27,14,22,14.10
2013,07,27,14,23,12.20
2013,07,27,14,24,12.80
2013,07,27,14,25,8.00
2013,07,27,14,26,11.80
2013,07,27,14,27,10.10
2013,07,27,14,28,10.90
2013,07,27,14,29,17.80
2013,07,27,14,30,18.90
2013,07,27,14,31,15.80
2013,07,27,14,32,18.60
2013,07,27,14,33,12.80
2013,07,27,14,34,14.90
2013,07,27,14,35,9.90
2013,07,27,14,36,12.50
2013,07,27,14,37,18.40
2013,07,27,14,38,19.70
2013,07,27,14,39,17.80
2013,07,27,14,40,19.50
2013,07,27,14,41,10.80
2013,07,27,14,42,12.40
2013,07,27,14,43,14.80
2013,07,27,14,44,16.60
2013,07,27,14,45,19.00
2013,07,27,14,46,13.80
2013,07,27,14,47,9.10
2013,07,27,14,48,11.30
2013,07,27,14,49,8.40
2013,07,27,14,50,10.60
2013,07,27,14,51,14.80
2013,07,27,14,52,16.80
2013,07,27,14,53,11.70
2013,07,27,14,54,10.50
2013,07,27,14,55,9.40
2013,07,27,14,56,13.60
2013,07,27,14,57,15.40
2013,07,27,14,58,9.50
2013,07,27,14,59,17.30
2013,07,27,15,00,12.80
2013,07,27,15,01,19.60
2013,07,27,15,02,11.20
2013,07,27,15,03,14.10
2013,07,27,15,04,15.60
2013,07,27,15,05,12.70
2013,07,27,15,06,9.80
2013,07,27,15,07,13.30
2013,07,27,15,08,16.90
2013,07,27,15,09,13.60
2013,07,27,15,10,17.70
2013,07,27,15,11,15.70
2013,07,27,15,12,8.80
2013,07,27,15,13,9.80
2013,07,27,15,14,12.50
2013,07,27,15,15,12.70
2013,07,27,15,16,8.70
2013,07,27,15,17,14.30
2013,07,27,15,18,14.10
2013,07,27,15,19,13.80
2013,07,27,15,20,7.80
2013,07,27,15,21,6.70
2013,07,27,15,22,7.60
2013,07,27,15,23,8.00
2013,07,27,15,24,19.80
2013,07,27,15,25,13.70
2013,07,27,15,26,9.90
2013,07,27,15,27,10.20
2013,07,27,15,28,11.50
2013,07,27,15,29,14.10
2013,07,27,15,30,12.30
2013,07,27,15,31,7.80
2013,07,27,15,32,7.60
2013,07,27,15,33,10.20
2013,07,27,15,34,13.30
2013,07,27,15,35,13.00
2013,07,27,15,36,20.50
2013,07,27,15,37,17.80
2013,07,27,15,38,20.20
2013,07,27,15,39,17.50
2013,07,27,15,40,16.00
2013,07,27,15,41,12.20
2013,07,27,15,42,13.80
2013,07,27,15,43,13.70
2013,07,27,15,44,16.50
2013,07,27,15,45,11.80
2013,07,27,15,46,9.20
2013,07,27,15,47,14.90
2013,07,27,15,48,14.30
2013,07,27,15,49,18.90
2013,07,27,15,50,18.70
2013,07,27,15,51,16.10
2013,07,27,15,52,13.30
2013,07,27,15,53,11.20
2013,07,27,15,54,12.30
2013,07,27,15,55,14.30
2013,07,27,15,56,10.60
2013,07,27,15,57,16.30
2013,07,27,15,58,13.40
2013,07,27,15,59,14.20
2013,07,27,16,00,14.60
2013,07,27,16,01,21.00
2013,07,27,16,02,19.10
2013,07,27,16,03,15.60
2013,07,27,16,04,19.20
2013,07,27,16,05,15.00
2013,07,27,16,06,19.00
2013,07,27,16,07,14.60
2013,07,27,16,08,15.50
2013,07,27,16,09,17.40
2013,07,27,16,10,17.60
2013,07,27,16,11,12.20
2013,07,27,16,12,15.00
2013,07,27,16,13,7.80
2013,07,27,16,14,9.00
2013,07,27,16,15,9.20
2013,07,27,16,16,13.30
2013,07,27,16,17,16.30
2013,07,27,16,18,11.40
2013,07,27,16,19,13.10
2013,07,27,16,20,12.40
2013,07,27,16,21,17.10
2013,07,27,16,22,14.30
2013,07,27,16,23,14.40
2013,07,27,16,24,15.60
2013,07,27,16,25,16.60
2013,07,27,16,26,12.90
2013,07,27,16,27,12.90
2013,07,27,16,28,13.40
2013,07,27,16,29,15.00
2013,07,27,16,30,15.50
2013,07,27,16,31,18.50
2013,07,27,16,32,14.00
2013,07,27,16,33,12.50
2013,07,27,16,34,15.10
2013,07,27,16,35,22.40
2013,07,27,16,36,12.50
2013,07,27,16,37,13.90
2013,07,27,16,38,17.10
2013,07,27,16,39,17.90
2013,07,27,16,40,14.30
2013,07,27,16,41,16.40
2013,07,27,16,42,21.60
2013,07,27,16,43,18.50
2013,07,27,16,44,19.40
2013,07,27,16,45,18.30
2013,07,27,16,46,17.30
2013,07,27,16,47,16.30
2013,07,27,16,48,15.60
2013,07,27,16,49,19.30
2013,07,27,16,50,17.80
2013,07,27,16,51,16.90
2013,07,27,16,52,18.30
2013,07,27,16,53,16.60
2013,07,27,16,54,12.50
2013,07,27,16,55,11.40
2013,07,27,16,56,18.70
2013,07,27,16,57,11.30
2013,07,27,16,58,11.90
2013,07,27,16,59,14.30
2013,07,27,17,00,16.50
2013,07,27,17,01,20.00
2013,07,27,17,02,10.70
2013,07,27,17,03,10.40
2013,07,27,17,04,16.30
2013,07,27,17,05,13.60
2013,07,27,17,06,14.70
2013,07,27,17,07,11.10
2013,07,27,17,08,11.40
2013,07,27,17,09,13.10
2013,07,27,17,10,15.60
2013,07,27,17,11,20.60
2013,07,27,17,12,13.80
2013,07,27,17,13,22.10
2013,07,27,17,14,23.90
2013,07,27,17,15,21.20
2013,07,27,17,16,18.10
2013,07,27,17,17,16.40
2013,07,27,17,18,19.10
2013,07,27,17,19,15.10
2013,07,27,17,20,22.40
2013,07,27,17,21,16.50
2013,07,27,17,22,14.70
2013,07,27,17,23,10.20
2013,07,27,17,24,15.90
2013,07,27,17,25,16.80
2013,07,27,17,26,15.10
2013,07,27,17,27,13.90
2013,07,27,17,28,16.10
2013,07,27,17,29,12.50
2013,07,27,17,30,11.90
2013,07,27,17,31,7.60
2013,07,27,17,32,8.70
2013,07,27,17,33,13.90
2013,07,27,17,34,17.50
2013,07,27,17,35,16.50
2013,07,27,17,36,15.00
2013,07,27,17,37,15.50
2013,07,27,17,38,13.50
2013,07,27,17,39,11.40
2013,07,27,17,40,15.80